Regional Weather Roundup
Issued by NWS

Home | Current Version | Previous Version | Text Only | Print | Product List | Glossary Off
Versions: 1 2 3 4 5 6 7 8 9 10 11 12 13 14 15 16 17 18 19 20 21 22 23 24 25 26 27 28 29 30 31 32 33 34 35 36 37 38 39 40 41 42 43 44 45 46 47 48 49 50

000
ASUS43 KLOT 221158
RWRIL

ILLINOIS REGIONAL WEATHER ROUNDUP
NATIONAL WEATHER SERVICE CHICAGO/ROMEOVILLE IL
700 AM CDT FRI AUG 22 2014

NOTE: "FAIR" INDICATES FEW OR NO CLOUDS BELOW 12,000 FEET WITH NO
SIGNIFICANT WEATHER AND/OR OBSTRUCTIONS TO VISIBILITY.

* THESE STATIONS ARE NOT UNDER NWS QUALITY CONTROL. THEY ALSO MAY NOT
  REPORT WEATHER SUCH AS PRECIPITATION OR FOG.

ILZ001-002-007-009-015-016-024-221300-
NORTHWEST ILLINOIS

CITY           SKY/WX    TMP DP  RH WIND       PRES   REMARKS
MOLINE         CLOUDY    78  73  84 W6        29.90R HX  81
6HR MIN TEMP:  73; 6HR MAX TEMP:  78;

$$

ILZ003-004-008-010-011-017-018-221300-
NORTH CENTRAL ILLINOIS

CITY           SKY/WX    TMP DP  RH WIND       PRES   REMARKS
ROCKFORD       CLOUDY    73  70  90 S10       29.93S
$$

ILZ005-006-012>014-019>023-221300-
NORTHEAST ILLINOIS

CITY           SKY/WX    TMP DP  RH WIND       PRES   REMARKS
CHICAGO-OHARE  MOCLDY    74  70  87 SW3       29.92R
6HR MIN TEMP:  72; 6HR MAX TEMP:  75; 6HR PCP:  1.64;

CHICAGO-MIDWAY MOCLDY    75  73  93 S6        29.93R
6HR MIN TEMP:  74; 6HR MAX TEMP:  76; 6HR PCP:  3.17;

AURORA         MOCLDY    74  70  87 S8        29.93S
6HR MIN TEMP:  73; 6HR MAX TEMP:  74; 6HR PCP:  0.16;

WAUKEGAN       FOG       71  69  93 CALM      29.93R VSB 1/4
6HR MIN TEMP:  69; 6HR MAX TEMP:  71; 6HR PCP:  0.08;

DUPAGE AIRPORT MOCLDY    74  71  91 S8        29.93R
6HR MIN TEMP:  73; 6HR MAX TEMP:  75; 6HR PCP:  1.70;

WHEELING       MOCLDY    74  72  93 CALM      29.94R
6HR MIN TEMP:  73; 6HR MAX TEMP:  75; 6HR PCP:  0.62;

NORTHERLY ISL    N/A     74  70  87 SW3         N/A
$$

LMZ740>746-221300-
SOUTHERN LAKE MICHIGAN

STATION/POSITION SKY/WX   TEMP    WIND        PRES    VSBY  WAVE
                          AIR SEA DIR/SP/G                  HT/PER
                          (F)     (DEG/KT/KT) (MB)    (MI)  (FT/S)
SOUTHERN BUOY              69 68  170/  2/  2 1013.1S         0
WAUKEGAN HARBOR            71      80/  3/  4   N/A
HARRISON CRIB              73     190/  8/ 10   N/A
BURNHAM HARBOR             73     210/  4/  9   N/A
CALUMET HARBOR             72     230/  1/  4 1012.0R
MICHIGAN CITY              72     230/  6/  7   N/A
MICHIGAN CITY 6N           72 70  260/  4/  4   N/A           1
ST. JOSEPH                 72 71  100/  4/  4   N/A           1
$$

ILZ025>027-034>036-040-047-049-050-058-095>099-221300-
WEST-CENTRAL ILLINOIS

CITY           SKY/WX    TMP DP  RH WIND       PRES   REMARKS
$$

ILZ028>032-037-038-041>044-048-051>054-059>061-221300-
CENTRAL ILLINOIS

CITY           SKY/WX    TMP DP  RH WIND       PRES   REMARKS
PEORIA         NOT AVBL
SPRINGFIELD    CLOUDY    77  72  84 CALM      29.98R
6HR MIN TEMP:  76; 6HR MAX TEMP:  81;

TAYLORVILLE    NOT AVBL
$$

ILZ033-039-045-046-055>057-062-063-221300-
EAST-CENTRAL ILLINOIS

CITY           SKY/WX    TMP DP  RH WIND       PRES   REMARKS
$$

ILZ079-100>102-221300-
SOUTHWEST ILLINOIS

CITY           SKY/WX    TMP DP  RH WIND       PRES   REMARKS
ALTON          MOCLDY    73  73 100 SW7       29.97S
$$

ILZ064>066-069>071-074>076-080>082-084>086-088>090-092>094-221300-
SOUTH-CENTRAL ILLINOIS

CITY           SKY/WX    TMP DP  RH WIND       PRES   REMARKS
CARBONDALE     CLEAR     75  71  87 SW7       30.00R
6HR MIN TEMP:  73; 6HR MAX TEMP:  80;

MARION         MOCLDY    75  73  94 SW6       30.02R
$$

ILZ067-068-072-073-078-083-087-091-221300-
SOUTHEAST ILLINOIS

CITY           SKY/WX    TMP DP  RH WIND       PRES   REMARKS
$$

ABBREVIATIONS USED IN REMARKS
   TC - TEMPERATURE IN CELSIUS
  WCI - WIND CHILL INDEX
   HX - HEAT INDEX
  VSB - VISIBILITY
$$




USA.gov is the U.S. government's official web portal to all federal, state and local government web resources and services.